Total_Precipitation_Accumulation
1.16 1.18 1.09 1.03 0.96 0.89 0.81 0.80 0.73 0.67 0.65 0.62 0.56 0.54 0.54 0.54 0.52 0.50 0.50 0.48 0.53 0.65 0.74 0.79 0.84 0.90 0.97 1.01 1.04 1.08 1.14 1.17 1.24 1.23 1.12 1.06 0.99 0.94 0.90 0.78 0.71 0.68 0.68
0.75 0.72 0.70 0.65 0.62 0.60 0.57 0.56 0.58 0.56 0.53 0.52 0.49 0.48 0.49 0.51 0.53 0.51 0.51 0.51 0.52 0.57 0.63 0.66 0.67 0.69 0.75 0.83 0.88 0.90 0.96 1.02 1.11 1.19 1.12 0.99 0.91 0.83 0.76 0.71 0.62 0.55 0.53
0.58 0.59 0.54 0.53 0.52 0.53 0.53 0.53 0.53 0.52 0.49 0.47 0.46 0.46 0.47 0.47 0.47 0.49 0.50 0.49 0.48 0.51 0.52 0.52 0.54 0.56 0.58 0.60 0.64 0.68 0.74 0.78 0.85 0.91 0.93 0.85 0.79 0.69 0.65 0.60 0.53 0.53 0.44
0.57 0.54 0.47 0.43 0.43 0.44 0.44 0.45 0.44 0.44 0.46 0.48 0.48 0.46 0.42 0.38 0.35 0.34 0.35 0.35 0.33 0.35 0.35 0.36 0.42 0.49 0.49 0.49 0.48 0.48 0.52 0.61 0.68 0.74 0.75 0.72 0.66 0.58 0.58 0.57 0.51 0.47 0.41
0.60 0.61 0.55 0.47 0.44 0.44 0.45 0.47 0.46 0.42 0.40 0.38 0.34 0.31 0.25 0.20 0.18 0.18 0.20 0.23 0.23 0.24 0.24 0.23 0.26 0.34 0.42 0.42 0.41 0.43 0.48 0.55 0.58 0.61 0.59 0.56 0.53 0.55 0.55 0.50 0.44 0.40 0.35
0.71 0.73 0.70 0.65 0.61 0.58 0.52 0.47 0.42 0.38 0.31 0.25 0.20 0.18 0.16 0.14 0.14 0.14 0.15 0.20 0.22 0.22 0.22 0.23 0.23 0.26 0.29 0.31 0.36 0.44 0.53 0.54 0.56 0.57 0.54 0.54 0.51 0.50 0.50 0.47 0.46 0.47 0.47
0.82 0.83 0.78 0.71 0.64 0.54 0.43 0.36 0.33 0.29 0.27 0.25 0.19 0.16 0.13 0.12 0.12 0.12 0.13 0.19 0.23 0.23 0.23 0.24 0.21 0.22 0.25 0.25 0.29 0.34 0.40 0.43 0.49 0.58 0.62 0.59 0.58 0.57 0.57 0.54 0.55 0.58 0.56
0.86 0.81 0.73 0.61 0.53 0.44 0.37 0.33 0.31 0.28 0.29 0.28 0.24 0.21 0.17 0.11 0.09 0.10 0.11 0.17 0.21 0.22 0.23 0.24 0.24 0.25 0.26 0.27 0.27 0.28 0.33 0.39 0.41 0.45 0.56 0.56 0.52 0.52 0.56 0.59 0.61 0.63 0.62
0.80 0.69 0.56 0.45 0.40 0.36 0.33 0.32 0.31 0.29 0.27 0.25 0.23 0.22 0.21 0.16 0.10 0.09 0.11 0.17 0.23 0.22 0.20 0.20 0.22 0.25 0.26 0.26 0.28 0.35 0.38 0.42 0.36 0.39 0.47 0.52 0.53 0.53 0.51 0.56 0.71 0.82 0.77
0.59 0.47 0.40 0.38 0.36 0.34 0.32 0.29 0.28 0.28 0.27 0.22 0.19 0.19 0.18 0.17 0.11 0.10 0.13 0.17 0.22 0.21 0.20 0.19 0.19 0.20 0.21 0.21 0.27 0.36 0.44 0.45 0.41 0.46 0.58 0.64 0.63 0.69 0.64 0.65 0.81 0.86 0.80
0.42 0.37 0.34 0.31 0.27 0.28 0.30 0.30 0.29 0.28 0.29 0.27 0.26 0.22 0.17 0.12 0.08 0.08 0.10 0.13 0.18 0.21 0.23 0.27 0.26 0.19 0.16 0.19 0.24 0.30 0.37 0.36 0.44 0.59 0.67 0.68 0.68 0.72 0.68 0.62 0.70 0.77 0.83
0.35 0.36 0.33 0.28 0.20 0.23 0.33 0.34 0.31 0.35 0.38 0.36 0.33 0.30 0.22 0.15 0.08 0.07 0.08 0.09 0.11 0.19 0.28 0.29 0.27 0.19 0.16 0.20 0.23 0.28 0.31 0.38 0.53 0.66 0.70 0.69 0.64 0.63 0.61 0.55 0.57 0.63 0.71
0.43 0.45 0.36 0.26 0.25 0.28 0.32 0.33 0.32 0.33 0.32 0.29 0.28 0.29 0.24 0.19 0.13 0.07 0.07 0.08 0.10 0.14 0.21 0.20 0.19 0.20 0.22 0.32 0.32 0.32 0.39 0.54 0.63 0.66 0.69 0.69 0.59 0.52 0.48 0.45 0.47 0.56 0.62
0.56 0.47 0.34 0.30 0.29 0.29 0.28 0.24 0.23 0.25 0.24 0.22 0.21 0.20 0.22 0.21 0.14 0.11 0.10 0.12 0.14 0.17 0.20 0.21 0.28 0.33 0.37 0.44 0.50 0.56 0.59 0.59 0.55 0.62 0.63 0.57 0.46 0.40 0.41 0.41 0.46 0.52 0.58
0.58 0.45 0.36 0.30 0.27 0.26 0.22 0.15 0.11 0.11 0.08 0.13 0.15 0.14 0.15 0.15 0.12 0.13 0.14 0.12 0.13 0.15 0.18 0.28 0.43 0.49 0.54 0.58 0.61 0.64 0.66 0.60 0.54 0.53 0.53 0.50 0.44 0.41 0.37 0.32 0.37 0.41 0.48
0.52 0.40 0.31 0.26 0.22 0.18 0.17 0.16 0.09 0.04 0.03 0.03 0.05 0.05 0.06 0.07 0.08 0.10 0.12 0.13 0.15 0.18 0.24 0.40 0.46 0.49 0.52 0.51 0.51 0.55 0.59 0.57 0.49 0.45 0.45 0.43 0.40 0.38 0.37 0.33 0.33 0.38 0.45
0.39 0.29 0.22 0.20 0.20 0.18 0.16 0.22 0.23 0.11 0.04 0.02 0.03 0.04 0.05 0.06 0.07 0.08 0.10 0.14 0.20 0.27 0.36 0.45 0.46 0.46 0.49 0.46 0.45 0.48 0.51 0.47 0.39 0.37 0.36 0.32 0.29 0.29 0.31 0.32 0.30 0.31 0.31
0.19 0.11 0.11 0.15 0.14 0.13 0.12 0.14 0.16 0.21 0.20 0.14 0.06 0.03 0.04 0.06 0.08 0.10 0.14 0.21 0.31 0.37 0.42 0.41 0.40 0.40 0.43 0.43 0.40 0.38 0.36 0.31 0.26 0.27 0.27 0.25 0.23 0.24 0.27 0.28 0.24 0.21 0.24
0.11 0.11 0.10 0.09 0.07 0.07 0.07 0.08 0.07 0.11 0.18 0.21 0.16 0.08 0.07 0.11 0.14 0.17 0.23 0.28 0.34 0.34 0.32 0.33 0.34 0.33 0.34 0.37 0.34 0.29 0.24 0.20 0.18 0.17 0.19 0.19 0.20 0.19 0.20 0.19 0.15 0.11 0.15
0.07 0.05 0.07 0.07 0.06 0.05 0.05 0.05 0.05 0.07 0.11 0.15 0.15 0.10 0.09 0.18 0.27 0.27 0.26 0.25 0.24 0.24 0.24 0.27 0.25 0.23 0.25 0.24 0.21 0.19 0.18 0.16 0.13 0.12 0.12 0.12 0.12 0.14 0.13 0.12 0.10 0.10 0.11
0.04 0.02 0.01 0.03 0.04 0.03 0.04 0.04 0.04 0.04 0.08 0.10 0.08 0.06 0.11 0.19 0.28 0.27 0.25 0.21 0.18 0.20 0.23 0.22 0.19 0.17 0.17 0.16 0.14 0.11 0.10 0.10 0.10 0.11 0.10 0.08 0.07 0.07 0.06 0.04 0.04 0.04 0.04
0.02 0.02 0.01 0.02 0.02 0.02 0.03 0.04 0.04 0.04 0.06 0.07 0.06 0.06 0.10 0.17 0.23 0.26 0.26 0.21 0.17 0.17 0.17 0.16 0.14 0.14 0.12 0.11 0.10 0.08 0.06 0.06 0.07 0.11 0.10 0.07 0.05 0.04 0.03 0.02 0.02 0.02 0.02
0.01 0.01 0.01 0.01 0.01 0.01 0.01 0.02 0.02 0.03 0.03 0.03 0.05 0.06 0.09 0.16 0.22 0.24 0.23 0.17 0.13 0.11 0.12 0.12 0.11 0.09 0.07 0.06 0.05 0.04 0.03 0.03 0.05 0.08 0.09 0.05 0.03 0.03 0.02 0.02 0.02 0.02 0.01
0.00 0.00 0.00 0.00 0.00 0.00 0.00 0.01 0.01 0.02 0.01 0.02 0.03 0.04 0.06 0.11 0.16 0.17 0.17 0.14 0.11 0.09 0.08 0.07 0.07 0.05 0.04 0.03 0.02 0.01 0.01 0.01 0.02 0.03 0.05 0.04 0.03 0.02 0.02 0.02 0.02 0.02 0.02
0.00 0.00 0.00 0.00 0.00 0.00 0.00 0.00 0.01 0.01 0.01 0.01 0.02 0.03 0.03 0.04 0.06 0.07 0.09 0.10 0.10 0.08 0.06 0.04 0.03 0.02 0.01 0.01 0.01 0.00 0.00 0.01 0.00 0.01 0.02 0.02 0.01 0.01 0.01 0.01 0.01 0.02 0.03
0.00 0.00 0.00 0.00 0.00 0.00 0.00 0.00 0.01 0.01 0.01 0.01 0.02 0.03 0.02 0.02 0.02 0.03 0.04 0.06 0.07 0.06 0.06 0.04 0.02 0.01 0.00 0.00 0.00 0.01 0.01 0.01 0.01 0.01 0.01 0.02 0.01 0.01 0.01 0.01 0.01 0.02 0.02